time, Switch, Flow(0), Analog(2)
yyyy/mm/dd HH:MM:SS.fff, True=FILTERED|False=TOTAL, L/min, V
2023/06/20 10:00:02.709, True, 4.635, 0.128939
2023/06/20 10:00:03.205, True, 4.379, 0.128328
2023/06/20 10:00:03.709, True, 3.979, 0.126955
2023/06/20 10:00:04.213, True, 2.653, 0.126574
2023/06/20 10:00:04.709, True, 2.022, 0.128023
2023/06/20 10:00:05.213, True, 1.658, 0.126421
2023/06/20 10:00:05.717, True, 1.658, 0.127031
2023/06/20 10:00:06.213, True, 1.685, 0.127565
2023/06/20 10:00:06.717, True, 1.989, 0.125963
2023/06/20 10:00:07.221, True, 1.659, 0.125887
2023/06/20 10:00:07.717, True, 1.685, 0.125124
2023/06/20 10:00:08.221, True, 1.989, 0.125429
2023/06/20 10:00:08.725, True, 1.658, 0.125277
2023/06/20 10:00:09.228, True, 1.660, 0.127565
2023/06/20 10:00:09.725, True, 1.683, 0.128176
2023/06/20 10:00:10.228, True, 1.660, 0.126802
2023/06/20 10:00:10.725, True, 2.020, 0.126497
2023/06/20 10:00:11.229, True, 1.658, 0.126116
2023/06/20 10:00:11.733, True, 1.659, 0.127337
2023/06/20 10:00:12.237, True, 1.657, 0.125505
2023/06/20 10:00:12.732, True, 2.024, 0.126955
2023/06/20 10:00:13.237, True, 1.656, 0.128557
2023/06/20 10:00:13.740, True, 1.660, 0.126040
2023/06/20 10:00:14.237, True, 1.683, 0.129320
2023/06/20 10:00:14.740, True, 1.990, 0.127947
2023/06/20 10:00:15.236, True, 1.685, 0.126955
2023/06/20 10:00:15.740, True, 1.658, 0.125505
2023/06/20 10:00:16.245, True, 1.658, 0.126650
2023/06/20 10:00:16.740, True, 1.685, 0.127947
2023/06/20 10:00:17.245, True, 1.990, 0.125811
2023/06/20 10:00:17.749, True, 1.658, 0.128634
2023/06/20 10:00:18.244, True, 1.685, 0.127108
2023/06/20 10:00:18.748, True, 1.659, 0.128557
2023/06/20 10:00:19.252, True, 1.989, 0.127871
2023/06/20 10:00:19.749, True, 1.685, 0.127871
2023/06/20 10:00:20.252, True, 1.658, 0.126879
2023/06/20 10:00:20.757, True, 1.993, 0.126345
2023/06/20 10:00:21.253, True, 1.681, 0.127642
2023/06/20 10:00:21.756, True, 1.658, 0.126345
2023/06/20 10:00:22.260, True, 1.989, 0.126802
2023/06/20 10:00:22.756, True, 1.685, 0.125887
2023/06/20 10:00:23.260, True, 1.658, 0.126040
2023/06/20 10:00:23.764, True, 1.658, 0.125505
2023/06/20 10:00:24.260, True, 1.685, 0.127260
2023/06/20 10:00:24.764, True, 1.658, 0.126497
2023/06/20 10:00:25.260, True, 2.025, 0.128634
2023/06/20 10:00:25.764, True, 1.655, 0.127337
2023/06/20 10:00:26.268, True, 1.658, 0.128176
2023/06/20 10:00:26.764, True, 2.022, 0.124819
2023/06/20 10:00:27.268, True, 1.658, 0.125963
2023/06/20 10:00:27.772, True, 1.658, 0.125963
2023/06/20 10:00:28.268, True, 1.686, 0.126345
2023/06/20 10:00:28.773, True, 1.658, 0.126345
2023/06/20 10:00:29.276, True, 1.989, 0.126345
2023/06/20 10:00:29.772, True, 1.685, 0.124590
2023/06/20 10:00:30.276, True, 1.659, 0.127337
2023/06/20 10:00:30.773, True, 1.684, 0.126192
2023/06/20 10:00:31.276, True, 1.659, 0.125963
2023/06/20 10:00:31.781, True, 1.659, 0.127871
2023/06/20 10:00:32.284, True, 1.991, 0.126726
2023/06/20 10:00:32.781, True, 1.683, 0.124819
2023/06/20 10:00:33.285, True, 1.990, 0.129091
2023/06/20 10:00:33.789, True, 1.657, 0.126116
2023/06/20 10:00:34.285, True, 2.025, 0.127260
2023/06/20 10:00:34.788, True, 1.655, 0.128023
2023/06/20 10:00:35.292, True, 1.658, 0.126802
2023/06/20 10:00:35.789, True, 2.025, 0.126726
2023/06/20 10:00:36.293, True, 1.655, 0.128099
2023/06/20 10:00:36.796, True, 1.658, 0.127642
2023/06/20 10:00:37.293, True, 1.685, 0.127794
2023/06/20 10:00:37.796, True, 1.658, 0.130236
2023/06/20 10:00:38.292, True, 1.685, 0.130922
2023/06/20 10:00:38.797, True, 1.989, 0.128176
2023/06/20 10:00:39.301, True, 1.658, 0.129473
2023/06/20 10:00:39.797, True, 1.685, 0.129244
2023/06/20 10:00:40.300, True, 1.989, 0.129625
2023/06/20 10:00:40.805, True, 1.658, 0.131151
2023/06/20 10:00:41.300, True, 1.687, 0.129702
2023/06/20 10:00:41.805, True, 1.989, 0.132448
2023/06/20 10:00:42.308, True, 1.657, 0.131075
2023/06/20 10:00:42.804, True, 2.021, 0.132601
2023/06/20 10:00:43.308, True, 1.659, 0.132143
2023/06/20 10:00:43.812, True, 1.657, 0.131609
2023/06/20 10:00:44.308, True, 1.685, 0.134203
2023/06/20 10:00:44.812, True, 1.990, 0.133974
2023/06/20 10:00:45.317, True, 1.659, 0.135729
2023/06/20 10:00:45.812, True, 1.683, 0.136110
2023/06/20 10:00:46.317, True, 1.991, 0.134585
2023/06/20 10:00:46.820, True, 1.657, 0.136187
2023/06/20 10:00:47.317, True, 1.687, 0.137407
2023/06/20 10:00:47.821, True, 1.656, 0.135271
2023/06/20 10:00:48.324, True, 1.658, 0.135271
2023/06/20 10:00:48.828, True, 1.658, 0.137789
2023/06/20 10:00:49.325, True, 2.022, 0.135653
2023/06/20 10:00:49.828, True, 1.658, 0.135653
2023/06/20 10:00:50.332, True, 1.658, 0.135729
2023/06/20 10:00:50.828, True, 2.021, 0.137255
2023/06/20 10:00:51.333, True, 1.660, 0.135958
2023/06/20 10:00:51.836, True, 1.988, 0.138705
2023/06/20 10:00:52.333, True, 1.684, 0.136797
2023/06/20 10:00:52.836, True, 1.660, 0.135576
2023/06/20 10:00:53.333, True, 2.020, 0.137636
2023/06/20 10:00:53.837, True, 1.658, 0.138170
2023/06/20 10:00:54.340, True, 1.991, 0.137789
2023/06/20 10:00:54.837, True, 1.684, 0.139086
2023/06/20 10:00:55.340, True, 1.658, 0.136721
2023/06/20 10:00:55.845, True, 1.659, 0.136797
2023/06/20 10:00:56.340, True, 1.684, 0.137102
2023/06/20 10:00:56.844, True, 1.989, 0.139162
2023/06/20 10:00:57.348, True, 1.658, 0.137407
2023/06/20 10:00:57.844, True, 2.025, 0.138018
2023/06/20 10:00:58.348, True, 1.655, 0.137026
2023/06/20 10:00:58.852, True, 1.658, 0.136645
2023/06/20 10:00:59.349, True, 1.685, 0.138399
2023/06/20 10:00:59.852, True, 1.990, 0.138399
2023/06/20 10:01:00.356, True, 1.658, 0.136568
2023/06/20 10:01:00.852, True, 1.684, 0.137713
2023/06/20 10:01:01.356, True, 1.659, 0.137713
2023/06/20 10:01:01.860, True, 1.988, 0.139773
2023/06/20 10:01:02.356, True, 1.685, 0.138018
2023/06/20 10:01:02.860, True, 1.658, 0.138933
2023/06/20 10:01:03.365, True, 1.990, 0.136187
2023/06/20 10:01:03.860, True, 1.684, 0.138552
2023/06/20 10:01:04.365, True, 1.990, 0.136950
2023/06/20 10:01:04.868, True, 1.658, 0.139315
2023/06/20 10:01:05.364, True, 1.685, 0.136492
2023/06/20 10:01:05.869, True, 1.990, 0.139315
2023/06/20 10:01:06.364, True, 1.685, 0.140154
2023/06/20 10:01:06.868, True, 1.991, 0.138705
2023/06/20 10:01:07.372, True, 1.656, 0.138933
2023/06/20 10:01:07.868, True, 1.685, 0.137331
2023/06/20 10:01:08.372, True, 1.989, 0.139925
2023/06/20 10:01:08.877, True, 1.659, 0.139086
2023/06/20 10:01:09.380, True, 1.658, 0.135958
2023/06/20 10:01:09.876, True, 2.022, 0.138323
2023/06/20 10:01:10.380, True, 1.658, 0.137026
2023/06/20 10:01:10.884, True, 1.657, 0.138018
2023/06/20 10:01:11.380, True, 2.024, 0.139620
2023/06/20 10:01:11.884, True, 1.657, 0.139086
2023/06/20 10:01:12.380, True, 2.022, 0.137102
2023/06/20 10:01:12.884, True, 1.657, 0.139086
2023/06/20 10:01:13.389, True, 1.658, 0.139544
2023/06/20 10:01:13.885, True, 2.022, 0.140078
2023/06/20 10:01:14.388, True, 1.658, 0.140154
2023/06/20 10:01:14.892, True, 1.659, 0.136645
2023/06/20 10:01:15.388, True, 1.685, 0.139467
2023/06/20 10:01:15.892, True, 1.659, 0.138399
2023/06/20 10:01:16.396, True, 1.989, 0.137407
2023/06/20 10:01:16.893, True, 1.684, 0.139162
2023/06/20 10:01:17.396, True, 1.990, 0.137942
2023/06/20 10:01:17.900, True, 1.658, 0.138552
2023/06/20 10:01:18.396, True, 2.022, 0.140307
2023/06/20 10:01:18.900, True, 1.660, 0.137865
2023/06/20 10:01:19.404, True, 1.988, 0.139696
2023/06/20 10:01:19.900, True, 1.683, 0.138323
2023/06/20 10:01:20.404, True, 1.660, 0.137331
2023/06/20 10:01:20.908, True, 1.656, 0.139925
2023/06/20 10:01:21.404, True, 1.685, 0.139849
2023/06/20 10:01:21.908, True, 1.989, 0.135500
2023/06/20 10:01:22.412, True, 1.658, 0.137713
2023/06/20 10:01:22.908, True, 1.685, 0.139315
2023/06/20 10:01:23.412, True, 1.989, 0.137789
2023/06/20 10:01:23.916, True, 1.658, 0.142214
2023/06/20 10:01:24.412, True, 1.688, 0.139239
2023/06/20 10:01:24.916, True, 1.989, 0.139162
2023/06/20 10:01:25.420, True, 1.987, 0.137484
2023/06/20 10:01:25.916, True, 1.686, 0.137789
2023/06/20 10:01:26.420, True, 1.656, 0.137026
2023/06/20 10:01:26.924, True, 1.658, 0.137331
2023/06/20 10:01:27.420, True, 2.022, 0.138323
2023/06/20 10:01:27.924, True, 1.658, 0.135653
2023/06/20 10:01:28.428, True, 1.658, 0.139239
2023/06/20 10:01:28.924, True, 2.022, 0.138399
2023/06/20 10:01:29.428, True, 1.659, 0.138933
2023/06/20 10:01:29.932, True, 1.657, 0.138399
2023/06/20 10:01:30.428, True, 1.685, 0.138094
2023/06/20 10:01:30.932, True, 1.990, 0.137102
2023/06/20 10:01:31.436, True, 1.658, 0.140230
2023/06/20 10:01:31.932, True, 1.685, 0.137713
2023/06/20 10:01:32.436, True, 1.989, 0.138094
2023/06/20 10:01:32.940, True, 1.659, 0.139162
2023/06/20 10:01:33.436, True, 2.020, 0.138705
2023/06/20 10:01:33.940, True, 1.660, 0.138018
2023/06/20 10:01:34.444, True, 1.656, 0.137560
2023/06/20 10:01:34.940, True, 1.685, 0.137255
2023/06/20 10:01:35.444, True, 1.989, 0.137407
2023/06/20 10:01:35.948, True, 1.660, 0.136339
2023/06/20 10:01:36.444, True, 1.683, 0.136339
2023/06/20 10:01:36.948, True, 1.990, 0.136721
2023/06/20 10:01:37.452, True, 1.660, 0.137102
2023/06/20 10:01:37.948, True, 1.683, 0.140459
2023/06/20 10:01:38.452, True, 1.658, 0.136034
2023/06/20 10:01:38.956, True, 1.992, 0.137179
2023/06/20 10:01:39.452, True, 1.682, 0.138857
2023/06/20 10:01:39.956, True, 1.989, 0.138094
2023/06/20 10:01:40.460, True, 1.658, 0.135119
2023/06/20 10:01:40.956, True, 2.022, 0.136187
2023/06/20 10:01:41.460, True, 1.658, 0.137865
2023/06/20 10:01:41.964, True, 1.661, 0.136568
2023/06/20 10:01:42.460, True, 2.018, 0.137484
2023/06/20 10:01:42.963, True, 1.658, 0.136873
2023/06/20 10:01:43.468, True, 1.658, 0.139696
2023/06/20 10:01:43.964, True, 1.685, 0.138781
2023/06/20 10:01:44.468, True, 1.989, 0.135348
2023/06/20 10:01:44.972, True, 1.658, 0.137026
2023/06/20 10:01:45.468, True, 1.685, 0.138247
2023/06/20 10:01:45.972, True, 1.989, 0.137865
2023/06/20 10:01:46.476, True, 1.659, 0.136568
2023/06/20 10:01:46.971, True, 1.684, 0.137713
2023/06/20 10:01:47.476, True, 1.658, 0.136034
2023/06/20 10:01:47.980, True, 1.658, 0.136568
2023/06/20 10:01:48.476, True, 1.685, 0.138247
2023/06/20 10:01:48.980, True, 1.994, 0.137789
2023/06/20 10:01:49.483, True, 1.655, 0.136721
2023/06/20 10:01:49.980, True, 1.685, 0.135729
2023/06/20 10:01:50.484, True, 1.658, 0.137102
2023/06/20 10:01:50.988, True, 1.990, 0.137255
2023/06/20 10:01:51.484, True, 1.685, 0.137942
2023/06/20 10:01:51.988, True, 1.658, 0.137789
2023/06/20 10:01:52.492, True, 1.990, 0.138552
2023/06/20 10:01:52.988, True, 1.685, 0.139391
2023/06/20 10:01:53.492, True, 1.990, 0.136721
2023/06/20 10:01:53.996, True, 1.660, 0.135729
2023/06/20 10:01:54.492, True, 1.683, 0.136873
2023/06/20 10:01:54.996, True, 1.993, 0.136339
2023/06/20 10:01:55.500, True, 1.655, 0.135348
2023/06/20 10:01:55.996, True, 1.685, 0.137484
2023/06/20 10:01:56.500, True, 1.658, 0.133745
2023/06/20 10:01:57.004, True, 1.992, 0.137255
2023/06/20 10:01:57.500, True, 1.682, 0.134203
2023/06/20 10:01:58.004, True, 1.658, 0.136492
2023/06/20 10:01:58.507, True, 1.990, 0.137407
2023/06/20 10:01:59.003, True, 1.685, 0.135195
2023/06/20 10:01:59.508, True, 1.658, 0.133669
2023/06/20 10:02:00.012, True, 1.660, 0.136492
2023/06/20 10:02:00.516, True, 1.988, 0.137026
2023/06/20 10:02:01.012, True, 1.685, 0.136492
2023/06/20 10:02:01.516, True, 1.659, 0.136416
2023/06/20 10:02:02.020, True, 1.992, 0.137102
2023/06/20 10:02:02.516, True, 1.682, 0.136492
2023/06/20 10:02:03.020, True, 1.659, 0.135805
2023/06/20 10:02:03.524, True, 1.657, 0.136416
2023/06/20 10:02:04.020, True, 2.021, 0.135348
2023/06/20 10:02:04.524, True, 1.659, 0.136950
2023/06/20 10:02:05.020, True, 1.684, 0.133364
2023/06/20 10:02:05.524, True, 1.660, 0.136263
2023/06/20 10:02:06.028, True, 1.655, 0.136645
2023/06/20 10:02:06.532, True, 1.659, 0.135805
2023/06/20 10:02:07.028, True, 2.023, 0.136721
2023/06/20 10:02:07.532, True, 1.656, 0.137179
2023/06/20 10:02:08.036, True, 1.988, 0.135348
2023/06/20 10:02:08.532, True, 1.686, 0.136873
2023/06/20 10:02:09.036, True, 1.658, 0.137865
2023/06/20 10:02:09.540, True, 1.987, 0.135042
2023/06/20 10:02:10.036, True, 1.685, 0.136263
2023/06/20 10:02:10.540, True, 1.992, 0.136492
2023/06/20 10:02:11.044, True, 1.656, 0.136263
2023/06/20 10:02:11.540, True, 2.021, 0.136721
2023/06/20 10:02:12.044, True, 1.658, 0.135729
2023/06/20 10:02:12.548, True, 1.989, 0.138399
2023/06/20 10:02:13.052, True, 1.659, 0.136645
2023/06/20 10:02:13.548, True, 1.683, 0.136950
2023/06/20 10:02:14.052, True, 1.989, 0.136492
2023/06/20 10:02:14.556, True, 1.658, 0.138018
2023/06/20 10:02:15.052, True, 1.685, 0.136339
2023/06/20 10:02:15.556, True, 1.990, 0.135424
2023/06/20 10:02:16.060, True, 1.658, 0.137255
2023/06/20 10:02:16.556, True, 1.684, 0.138628
2023/06/20 10:02:17.060, True, 1.658, 0.137255
2023/06/20 10:02:17.564, True, 1.658, 0.136034
2023/06/20 10:02:18.060, True, 1.685, 0.136110
2023/06/20 10:02:18.564, True, 1.990, 0.136416
2023/06/20 10:02:19.068, True, 1.658, 0.136187
2023/06/20 10:02:19.564, True, 1.685, 0.135882
2023/06/20 10:02:20.068, True, 1.992, 0.135500
2023/06/20 10:02:20.572, True, 1.656, 0.137484
2023/06/20 10:02:21.068, True, 2.022, 0.136110
2023/06/20 10:02:21.572, True, 1.658, 0.135576
2023/06/20 10:02:22.076, True, 1.658, 0.136339
2023/06/20 10:02:22.572, True, 2.022, 0.133898
2023/06/20 10:02:23.076, True, 1.658, 0.136873
2023/06/20 10:02:23.580, True, 1.989, 0.136950
2023/06/20 10:02:24.076, True, 1.685, 0.136110
2023/06/20 10:02:24.580, True, 1.658, 0.135729
2023/06/20 10:02:25.084, True, 1.990, 0.136110
2023/06/20 10:02:25.580, True, 1.685, 0.134585
2023/06/20 10:02:26.084, True, 1.658, 0.136110
2023/06/20 10:02:26.588, True, 1.990, 0.135348
2023/06/20 10:02:27.084, True, 1.685, 0.135576
2023/06/20 10:02:27.588, True, 1.658, 0.136034
2023/06/20 10:02:28.092, True, 1.990, 0.135882
2023/06/20 10:02:28.588, True, 1.685, 0.133974
2023/06/20 10:02:29.092, True, 1.990, 0.134203
2023/06/20 10:02:29.596, True, 1.992, 0.134661
2023/06/20 10:02:30.092, True, 1.682, 0.139315
2023/06/20 10:02:30.596, True, 1.658, 0.134051
2023/06/20 10:02:31.100, True, 1.990, 0.134813
2023/06/20 10:02:31.596, True, 1.685, 0.133516
2023/06/20 10:02:32.100, True, 1.989, 0.135195
2023/06/20 10:02:32.604, True, 1.658, 0.134890
2023/06/20 10:02:33.100, True, 2.023, 0.135042
2023/06/20 10:02:33.604, True, 1.657, 0.135576
2023/06/20 10:02:34.108, True, 1.658, 0.133745
2023/06/20 10:02:34.604, True, 1.685, 0.134356
2023/06/20 10:02:35.108, True, 1.990, 0.135424
2023/06/20 10:02:35.612, True, 1.659, 0.135195
2023/06/20 10:02:36.108, True, 1.684, 0.135424
2023/06/20 10:02:36.612, True, 1.993, 0.136568
2023/06/20 10:02:37.116, True, 1.655, 0.136339
2023/06/20 10:02:37.612, True, 1.685, 0.134737
2023/06/20 10:02:38.116, True, 1.657, 0.134966
2023/06/20 10:02:38.620, True, 1.658, 0.135653
2023/06/20 10:02:39.116, True, 2.022, 0.134279
2023/06/20 10:02:39.620, True, 1.658, 0.133059
2023/06/20 10:02:40.124, True, 1.658, 0.135576
2023/06/20 10:02:40.620, True, 1.685, 0.133669
2023/06/20 10:02:41.124, True, 1.989, 0.133669
2023/06/20 10:02:41.628, True, 1.658, 0.136339
2023/06/20 10:02:42.132, True, 1.990, 0.134203
2023/06/20 10:02:42.628, True, 1.685, 0.135424
2023/06/20 10:02:43.132, True, 1.658, 0.134508
2023/06/20 10:02:43.627, True, 2.022, 0.135500
2023/06/20 10:02:44.132, True, 1.659, 0.136645
2023/06/20 10:02:44.636, True, 1.657, 0.134356
2023/06/20 10:02:45.140, True, 1.989, 0.134127
2023/06/20 10:02:45.636, True, 1.685, 0.132372
2023/06/20 10:02:46.140, True, 1.658, 0.135958
2023/06/20 10:02:46.644, True, 1.990, 0.135576
2023/06/20 10:02:47.140, True, 1.684, 0.134813
2023/06/20 10:02:47.644, True, 1.990, 0.132219
2023/06/20 10:02:48.148, True, 1.658, 0.136034
2023/06/20 10:02:48.644, True, 1.685, 0.135424
2023/06/20 10:02:49.148, True, 1.658, 0.133593
2023/06/20 10:02:49.652, True, 1.993, 0.132601
2023/06/20 10:02:50.148, True, 1.682, 0.135042
2023/06/20 10:02:50.652, True, 1.660, 0.134356
2023/06/20 10:02:51.148, True, 1.684, 0.136339
2023/06/20 10:02:51.652, True, 1.988, 0.137102
2023/06/20 10:02:52.156, True, 1.658, 0.135805
2023/06/20 10:02:52.652, True, 2.024, 0.135958
2023/06/20 10:02:53.156, True, 1.656, 0.133440
2023/06/20 10:02:53.660, True, 1.658, 0.132525
2023/06/20 10:02:54.156, True, 2.022, 0.134432
2023/06/20 10:02:54.660, True, 1.658, 0.133898
2023/06/20 10:02:55.156, True, 1.685, 0.136416
2023/06/20 10:02:55.660, True, 1.990, 0.135348
2023/06/20 10:02:56.164, True, 1.658, 0.132372
2023/06/20 10:02:56.668, True, 1.658, 0.135424
2023/06/20 10:02:57.164, True, 2.021, 0.134890
2023/06/20 10:02:57.668, True, 1.658, 0.134051
2023/06/20 10:02:58.164, True, 1.685, 0.134737
2023/06/20 10:02:58.668, True, 1.992, 0.133059
2023/06/20 10:02:59.172, True, 1.657, 0.133364
2023/06/20 10:02:59.676, True, 1.990, 0.132906
2023/06/20 10:03:00.172, True, 1.685, 0.135500
2023/06/20 10:03:00.676, True, 1.658, 0.134203
2023/06/20 10:03:01.180, True, 1.990, 0.133898
2023/06/20 10:03:01.676, True, 1.685, 0.133974
2023/06/20 10:03:02.180, True, 1.658, 0.135500
2023/06/20 10:03:02.684, True, 1.990, 0.132906
2023/06/20 10:03:03.179, True, 1.687, 0.131228
2023/06/20 10:03:03.684, True, 1.656, 0.133135
2023/06/20 10:03:04.188, True, 1.990, 0.134432
2023/06/20 10:03:04.684, True, 1.684, 0.136034
2023/06/20 10:03:05.188, True, 1.658, 0.133364
2023/06/20 10:03:05.692, True, 1.990, 0.132830
2023/06/20 10:03:06.188, True, 1.685, 0.134432
2023/06/20 10:03:06.692, True, 1.990, 0.134661
2023/06/20 10:03:07.196, True, 1.660, 0.135271
2023/06/20 10:03:07.692, True, 1.686, 0.131991
2023/06/20 10:03:08.196, True, 1.986, 0.132601
2023/06/20 10:03:08.700, True, 1.658, 0.133288
2023/06/20 10:03:09.196, True, 2.022, 0.135119
2023/06/20 10:03:09.700, True, 1.658, 0.132372
2023/06/20 10:03:10.204, True, 1.658, 0.134432
2023/06/20 10:03:10.708, True, 1.658, 0.132296
2023/06/20 10:03:11.204, True, 1.685, 0.136492
2023/06/20 10:03:11.708, True, 1.990, 0.133440
2023/06/20 10:03:12.212, True, 1.660, 0.131609
2023/06/20 10:03:12.708, True, 2.019, 0.134279
2023/06/20 10:03:13.212, True, 1.658, 0.132906
2023/06/20 10:03:13.716, True, 1.658, 0.132753
2023/06/20 10:03:14.212, True, 1.685, 0.133211
2023/06/20 10:03:14.716, True, 1.990, 0.133211
2023/06/20 10:03:15.220, True, 1.658, 0.132753
2023/06/20 10:03:15.716, True, 1.685, 0.135576
2023/06/20 10:03:16.220, True, 1.989, 0.135119
2023/06/20 10:03:16.724, True, 1.658, 0.131380
2023/06/20 10:03:17.220, True, 1.686, 0.132830
2023/06/20 10:03:17.724, True, 1.988, 0.131304
2023/06/20 10:03:18.228, True, 1.658, 0.131991
2023/06/20 10:03:18.724, True, 1.684, 0.133440
2023/06/20 10:03:19.228, True, 1.990, 0.132601
2023/06/20 10:03:19.732, True, 1.658, 0.133288
2023/06/20 10:03:20.228, True, 1.685, 0.133440
2023/06/20 10:03:20.732, True, 1.657, 0.134279
2023/06/20 10:03:21.236, True, 1.990, 0.131151
2023/06/20 10:03:21.732, True, 1.684, 0.133288
2023/06/20 10:03:22.236, True, 1.989, 0.132982
2023/06/20 10:03:22.740, True, 1.658, 0.131685
2023/06/20 10:03:23.236, True, 1.685, 0.133516
2023/06/20 10:03:23.740, True, 1.658, 0.132906
2023/06/20 10:03:24.236, True, 1.685, 0.131304
2023/06/20 10:03:24.740, True, 1.658, 0.132525
2023/06/20 10:03:25.244, True, 1.658, 0.133974
2023/06/20 10:03:25.739, True, 2.024, 0.134051
2023/06/20 10:03:26.244, True, 1.657, 0.131456
2023/06/20 10:03:26.748, True, 1.657, 0.132296
2023/06/20 10:03:27.244, True, 1.685, 0.132296
2023/06/20 10:03:27.747, True, 1.991, 0.133440
2023/06/20 10:03:28.251, True, 1.657, 0.131762
2023/06/20 10:03:28.748, True, 1.685, 0.133593
2023/06/20 10:03:29.252, True, 1.659, 0.133669
2023/06/20 10:03:29.748, True, 2.022, 0.133440
2023/06/20 10:03:30.252, True, 1.657, 0.133288
2023/06/20 10:03:30.756, True, 1.659, 0.132753
2023/06/20 10:03:31.260, True, 1.988, 0.133898
2023/06/20 10:03:31.764, True, 1.660, 0.132143
2023/06/20 10:03:32.260, True, 2.022, 0.132677
2023/06/20 10:03:32.764, True, 1.658, 0.131151
2023/06/20 10:03:33.260, True, 1.683, 0.132448
2023/06/20 10:03:33.764, True, 1.992, 0.132143
2023/06/20 10:03:34.268, True, 1.658, 0.133669
2023/06/20 10:03:34.772, True, 1.656, 0.130694
2023/06/20 10:03:35.268, True, 2.024, 0.134585
2023/06/20 10:03:35.772, True, 1.659, 0.134127
2023/06/20 10:03:36.276, True, 1.657, 0.132296
2023/06/20 10:03:36.772, True, 2.018, 0.132906
2023/06/20 10:03:37.275, True, 1.661, 0.132982
2023/06/20 10:03:37.780, True, 1.990, 0.134356
2023/06/20 10:03:38.276, True, 1.685, 0.134432
2023/06/20 10:03:38.780, True, 1.986, 0.131533
2023/06/20 10:03:39.283, True, 1.661, 0.134508
2023/06/20 10:03:39.780, True, 2.021, 0.129625
2023/06/20 10:03:40.284, True, 1.657, 0.131304
2023/06/20 10:03:40.788, True, 1.657, 0.131380
2023/06/20 10:03:41.292, True, 1.990, 0.132753
2023/06/20 10:03:41.788, True, 1.685, 0.132143
2023/06/20 10:03:42.292, True, 1.658, 0.133288
2023/06/20 10:03:42.796, True, 1.990, 0.133059
2023/06/20 10:03:43.292, True, 1.688, 0.132372
2023/06/20 10:03:43.795, True, 1.986, 0.133135
2023/06/20 10:03:44.300, True, 1.659, 0.133593
2023/06/20 10:03:44.796, True, 1.684, 0.132677
2023/06/20 10:03:45.300, True, 1.989, 0.133822
2023/06/20 10:03:45.804, True, 1.658, 0.132830
2023/06/20 10:03:46.300, True, 1.687, 0.132906
2023/06/20 10:03:46.804, True, 1.988, 0.132982
2023/06/20 10:03:47.308, True, 1.658, 0.132296
2023/06/20 10:03:47.804, True, 1.685, 0.132677
2023/06/20 10:03:48.308, True, 1.990, 0.133135
2023/06/20 10:03:48.804, True, 1.685, 0.130465
2023/06/20 10:03:49.308, True, 1.658, 0.131991
2023/06/20 10:03:49.812, True, 1.990, 0.132677
2023/06/20 10:03:50.316, True, 1.658, 0.132372
2023/06/20 10:03:50.812, True, 2.022, 0.131075
2023/06/20 10:03:51.316, True, 1.658, 0.132448
2023/06/20 10:03:51.820, True, 1.990, 0.132601
2023/06/20 10:03:52.316, True, 1.685, 0.132753
2023/06/20 10:03:52.820, True, 1.657, 0.131838
2023/06/20 10:03:53.316, True, 1.685, 0.132143
2023/06/20 10:03:53.820, True, 1.989, 0.131762
2023/06/20 10:03:54.323, True, 1.658, 0.130846
2023/06/20 10:03:54.820, True, 2.021, 0.132677
2023/06/20 10:03:55.324, True, 1.658, 0.132372
2023/06/20 10:03:55.828, True, 1.990, 0.132296
2023/06/20 10:03:56.324, True, 1.685, 0.131609
2023/06/20 10:03:56.828, True, 1.658, 0.131914
2023/06/20 10:03:57.332, True, 1.658, 0.130999
2023/06/20 10:03:57.828, True, 2.022, 0.132601
2023/06/20 10:03:58.332, True, 1.658, 0.130617
2023/06/20 10:03:58.836, True, 1.658, 0.129397
2023/06/20 10:03:59.332, True, 1.685, 0.133059
2023/06/20 10:03:59.836, True, 1.990, 0.133364
2023/06/20 10:04:00.340, True, 1.658, 0.129778
2023/06/20 10:04:00.836, True, 1.685, 0.129473
2023/06/20 10:04:01.340, True, 1.658, 0.132296
2023/06/20 10:04:01.844, True, 1.658, 0.131838
2023/06/20 10:04:02.340, True, 2.022, 0.131304
2023/06/20 10:04:02.844, True, 1.658, 0.129244
2023/06/20 10:04:03.348, True, 1.990, 0.131914
2023/06/20 10:04:03.844, True, 1.685, 0.130770
2023/06/20 10:04:04.348, True, 1.990, 0.130694
2023/06/20 10:04:04.852, True, 1.659, 0.130999
2023/06/20 10:04:05.348, True, 1.683, 0.131380
2023/06/20 10:04:05.852, True, 1.658, 0.133669
2023/06/20 10:04:06.356, True, 1.658, 0.131380
2023/06/20 10:04:06.852, True, 1.687, 0.130007
2023/06/20 10:04:07.356, True, 1.656, 0.133211
2023/06/20 10:04:07.860, True, 1.991, 0.131609
2023/06/20 10:04:08.356, True, 1.684, 0.131380
2023/06/20 10:04:08.860, True, 1.658, 0.131380
2023/06/20 10:04:09.364, True, 1.990, 0.130999
2023/06/20 10:04:09.860, True, 1.685, 0.132677
2023/06/20 10:04:10.364, True, 1.990, 0.131991
2023/06/20 10:04:10.860, True, 1.685, 0.132677
2023/06/20 10:04:11.364, True, 1.658, 0.130083
2023/06/20 10:04:11.868, True, 1.658, 0.131838